,,,PA_Meas_PMT16A,,PR_Meas_QMR101_102,,RH_Meas_QMH101,,SR_Meas_QMS101,,TA_Meas_QMH101,,GenWind,,GenWind,
date,time,status,PA,status,PR,status,RH,status,SR,status,TA,status,DirAvg,status,SpdAvg,
2011-05-11, 00:00:04,VALID,1001.69,VALID,0,VALID,83.6206,VALID,0,VALID,24.8527,VALID,144,VALID,0.725,
2011-05-11, 00:01:04,VALID,1001.69,VALID,0,VALID,83.4223,VALID,0,VALID,24.8917,VALID,144,VALID,0.630859,
2011-05-11, 00:02:04,VALID,1001.72,VALID,0,VALID,82.8729,VALID,0,VALID,24.8917,VALID,144,VALID,0.413281,
2011-05-11, 00:03:04,VALID,1001.72,VALID,0,VALID,82.995,VALID,0,VALID,24.9093,VALID,144,VALID,0.559766,
2011-05-11, 00:04:04,VALID,1001.73,VALID,0,VALID,83.2926,VALID,0,VALID,24.9503,VALID,144,VALID,0.680469,
2011-05-11, 00:05:04,VALID,1001.73,VALID,0,VALID,83.2926,VALID,0,VALID,24.9484,VALID,144,VALID,0.639453,
2011-05-11, 00:06:04,VALID,1001.72,VALID,0,VALID,82.8424,VALID,0.112286,VALID,24.9698,VALID,160,VALID,0.587891,
2011-05-11, 00:07:04,VALID,1001.71,VALID,0,VALID,82.2244,VALID,0,VALID,24.9874,VALID,177,VALID,0.712109,
2011-05-11, 00:08:04,VALID,1001.75,VALID,0,VALID,82.2015,VALID,0,VALID,25.0069,VALID,174,VALID,0.315234,
2011-05-11, 00:09:04,VALID,1001.71,VALID,0,VALID,82.3236,VALID,0,VALID,25.0069,VALID,174,VALID,0.208984,
2011-05-11, 00:10:04,VALID,1001.72,VALID,0,VALID,82.8272,VALID,0,VALID,25.0284,VALID,174,VALID,0.0210938,
2011-05-11, 00:11:04,VALID,1001.7,VALID,0,VALID,83.5367,VALID,0,VALID,25.0088,VALID,174,VALID,0,
2011-05-11, 00:12:04,VALID,1001.72,VALID,0,VALID,83.3383,VALID,0,VALID,24.9698,VALID,174,VALID,0,
2011-05-11, 00:13:04,VALID,1001.71,VALID,0,VALID,83.9945,VALID,0,VALID,24.9893,VALID,175,VALID,0.330859,
2011-05-11, 00:14:04,VALID,1001.74,VALID,0,VALID,84.8872,VALID,0,VALID,24.9698,VALID,303,VALID,0.754687,
2011-05-11, 00:15:04,VALID,1001.74,VALID,0,VALID,85.7493,VALID,0,VALID,24.9112,VALID,305,VALID,0.598047,
2011-05-11, 00:16:04,VALID,1001.75,VALID,0,VALID,85.8485,VALID,0,VALID,24.8722,VALID,305,VALID,0.464453,
2011-05-11, 00:17:04,VALID,1001.75,VALID,0,VALID,85.8943,VALID,0,VALID,24.8136,VALID,305,VALID,0.552344,
2011-05-11, 00:18:04,VALID,1001.78,VALID,0,VALID,86.1003,VALID,0,VALID,24.7727,VALID,305,VALID,0.491016,
2011-05-11, 00:19:04,VALID,1001.79,VALID,0,VALID,86.4283,VALID,0,VALID,24.7551,VALID,305,VALID,0.183984,
2011-05-11, 00:20:04,VALID,1001.76,VALID,0,VALID,86.5962,VALID,0,VALID,24.7356,VALID,305,VALID,0,
2011-05-11, 00:21:04,VALID,1001.75,VALID,0,VALID,86.6191,VALID,0,VALID,24.6946,VALID,305,VALID,0,
2011-05-11, 00:22:04,VALID,1001.75,VALID,0,VALID,86.703,VALID,0,VALID,24.6751,VALID,305,VALID,0,
2011-05-11, 00:23:04,VALID,1001.74,VALID,0,VALID,86.3978,VALID,0,VALID,24.716,VALID,305,VALID,0.0789063,
2011-05-11, 00:24:04,VALID,1001.7,VALID,0,VALID,86.4589,VALID,0,VALID,24.6946,VALID,235,VALID,0.580859,
2011-05-11, 00:25:04,VALID,1001.7,VALID,0,VALID,86.436,VALID,0,VALID,24.7142,VALID,213,VALID,0.864453,
2011-05-11, 00:26:04,VALID,1001.72,VALID,0,VALID,85.9248,VALID,0,VALID,24.7356,VALID,213,VALID,0.764844,
2011-05-11, 00:27:04,VALID,1001.72,VALID,0,VALID,85.5509,VALID,0,VALID,24.7765,VALID,213,VALID,0.816406,
2011-05-11, 00:28:04,VALID,1001.68,VALID,0,VALID,84.7193,VALID,0,VALID,24.8136,VALID,208,VALID,0.776172,
2011-05-11, 00:29:04,VALID,1001.69,VALID,0,VALID,83.6054,VALID,0,VALID,24.8917,VALID,195,VALID,0.672656,
2011-05-11, 00:30:04,VALID,1001.69,VALID,0,VALID,83.0789,VALID,0,VALID,24.9308,VALID,185,VALID,0.369922,
2011-05-11, 00:31:04,VALID,1001.68,VALID,0,VALID,83.1552,VALID,0,VALID,24.9289,VALID,173,VALID,0.451172,
2011-05-11, 00:32:04,VALID,1001.69,VALID,0,VALID,84.2157,VALID,0,VALID,25.0088,VALID,173,VALID,0.00625,
2011-05-11, 00:33:04,VALID,1001.7,VALID,0,VALID,85.3755,VALID,0,VALID,24.9679,VALID,173,VALID,0.381641,
2011-05-11, 00:34:04,VALID,1001.67,VALID,0,VALID,85.8485,VALID,0,VALID,24.9308,VALID,173,VALID,0.422266,
2011-05-11, 00:35:04,VALID,1001.67,VALID,0,VALID,86.024,VALID,0,VALID,24.8722,VALID,173,VALID,0.191016,
2011-05-11, 00:36:04,VALID,1001.67,VALID,0,VALID,85.9858,VALID,0,VALID,24.8136,VALID,173,VALID,0,
2011-05-11, 00:37:04,VALID,1001.66,VALID,0,VALID,86.1155,VALID,0,VALID,24.7941,VALID,173,VALID,0,
2011-05-11, 00:38:04,VALID,1001.66,VALID,0,VALID,86.2147,VALID,0,VALID,24.7941,VALID,173,VALID,0,
2011-05-11, 00:39:04,VALID,1001.66,VALID,0,VALID,85.7722,VALID,0,VALID,24.7532,VALID,173,VALID,0,
2011-05-11, 00:40:04,VALID,1001.63,VALID,0,VALID,85.467,VALID,0,VALID,24.7532,VALID,173,VALID,0,
2011-05-11, 00:41:04,VALID,1001.61,VALID,0,VALID,86.2757,VALID,0,VALID,24.7746,VALID,173,VALID,0,
2011-05-11, 00:42:04,VALID,1001.62,VALID,0,VALID,86.7259,VALID,0,VALID,24.7746,VALID,173,VALID,0,
2011-05-11, 00:43:04,VALID,1001.6,VALID,0,VALID,86.6877,VALID,0,VALID,24.7142,VALID,173,VALID,0,
2011-05-11, 00:44:04,VALID,1001.59,VALID,0,VALID,86.6267,VALID,0,VALID,24.716,VALID,173,VALID,0,
2011-05-11, 00:45:04,VALID,1001.61,VALID,0,VALID,86.764,VALID,0,VALID,24.6751,VALID,173,VALID,0,
2011-05-11, 00:46:04,VALID,1001.59,VALID,0,VALID,86.6649,VALID,0,VALID,24.6361,VALID,173,VALID,0,
2011-05-11, 00:47:04,VALID,1001.61,VALID,0,VALID,86.9166,VALID,0,VALID,24.6361,VALID,173,VALID,0,
2011-05-11, 00:48:04,VALID,1001.61,VALID,0,VALID,87.2676,VALID,0,VALID,24.5971,VALID,173,VALID,0,
2011-05-11, 00:49:04,VALID,1001.66,VALID,0,VALID,87.2218,VALID,0,VALID,24.558,VALID,173,VALID,0,
2011-05-11, 00:50:04,VALID,1001.63,VALID,0,VALID,87.5575,VALID,0,VALID,24.5794,VALID,173,VALID,0,
2011-05-11, 00:51:04,VALID,1001.67,VALID,0,VALID,87.8932,VALID,0,VALID,24.5794,VALID,173,VALID,0.541797,
2011-05-11, 00:52:04,VALID,1001.69,VALID,0,VALID,88.1068,VALID,0,VALID,24.519,VALID,281,VALID,0.592969,
2011-05-11, 00:53:04,VALID,1001.68,VALID,0,VALID,88.2213,VALID,0,VALID,24.519,VALID,287,VALID,0,
2011-05-11, 00:54:04,VALID,1001.67,VALID,0,VALID,88.1984,VALID,0,VALID,24.519,VALID,287,VALID,0,
2011-05-11, 00:55:04,VALID,1001.67,VALID,0,VALID,88.3129,VALID,0,VALID,24.519,VALID,287,VALID,0,
2011-05-11, 00:56:04,VALID,1001.64,VALID,0,VALID,88.1374,VALID,0,VALID,24.48,VALID,287,VALID,0,
2011-05-11, 00:57:04,VALID,1001.61,VALID,0,VALID,87.6567,VALID,0,VALID,24.48,VALID,287,VALID,0,
2011-05-11, 00:58:04,VALID,1001.6,VALID,0,VALID,87.1989,VALID,0,VALID,24.48,VALID,215,VALID,0,
2011-05-11, 00:59:04,VALID,1001.58,VALID,0,VALID,86.4894,VALID,0,VALID,24.4995,VALID,215,VALID,0,
2011-05-11, 01:00:04,VALID,1001.57,VALID,0,VALID,86.5123,VALID,0,VALID,24.5404,VALID,215,VALID,0,
2011-05-11, 01:01:04,VALID,1001.55,VALID,0,VALID,86.4665,VALID,0,VALID,24.5599,VALID,215,VALID,0,
2011-05-11, 01:02:04,VALID,1001.53,VALID,0,VALID,85.94,VALID,0,VALID,24.5599,VALID,215,VALID,0.0832031,
2011-05-11, 01:03:04,VALID,1001.47,VALID,0,VALID,84.437,VALID,0,VALID,24.5971,VALID,215,VALID,1.36406,
2011-05-11, 01:04:04,VALID,1001.47,VALID,0,VALID,84.0632,VALID,0,VALID,24.6946,VALID,215,VALID,1.18438,
2011-05-11, 01:05:04,VALID,1001.46,VALID,0,VALID,83.4757,VALID,0,VALID,24.7142,VALID,213,VALID,0.895312,
2011-05-11, 01:06:04,VALID,1001.49,VALID,0,VALID,83.6283,VALID,0,VALID,24.7551,VALID,216,VALID,0.501953,
2011-05-11, 01:07:04,VALID,1001.44,VALID,0,VALID,83.2086,VALID,0,VALID,24.7746,VALID,202,VALID,1.08672,
2011-05-11, 01:08:04,VALID,1001.47,VALID,0,VALID,83.407,VALID,0,VALID,24.7727,VALID,187,VALID,0.864062,
2011-05-11, 01:09:04,VALID,1001.49,VALID,0,VALID,83.552,VALID,0,VALID,24.7922,VALID,204,VALID,1.04023,
2011-05-11, 01:10:04,VALID,1001.48,VALID,0,VALID,83.3155,VALID,0,VALID,24.8136,VALID,196,VALID,1.13516,
2011-05-11, 01:11:04,VALID,1001.46,VALID,0,VALID,83.0332,VALID,0,VALID,24.8527,VALID,204,VALID,1.13711,
2011-05-11, 01:12:04,VALID,1001.47,VALID,0,VALID,83.262,VALID,0,VALID,24.8508,VALID,198,VALID,1.17578,
2011-05-11, 01:13:04,VALID,1001.48,VALID,0,VALID,83.262,VALID,0,VALID,24.8703,VALID,178,VALID,1.31094,
2011-05-11, 01:14:04,VALID,1001.42,VALID,0,VALID,82.0413,VALID,0,VALID,24.8722,VALID,181,VALID,1.82109,
2011-05-11, 01:15:04,VALID,1001.44,VALID,0,VALID,82.1176,VALID,0,VALID,24.8527,VALID,174,VALID,1.77656,
2011-05-11, 01:16:04,VALID,1001.44,VALID,0,VALID,82.8653,VALID,0,VALID,24.8313,VALID,179,VALID,1.42695,
2011-05-11, 01:17:04,VALID,1001.44,VALID,0,VALID,82.9187,VALID,0,VALID,24.8117,VALID,189,VALID,1.49648,
2011-05-11, 01:18:04,VALID,1001.42,VALID,0,VALID,83.201,VALID,0,VALID,24.7727,VALID,177,VALID,1.59492,
2011-05-11, 01:19:04,VALID,1001.43,VALID,0,VALID,83.4757,VALID,0,VALID,24.7941,VALID,173,VALID,1.5375,
2011-05-11, 01:20:04,VALID,1001.44,VALID,0,VALID,83.4604,VALID,0,VALID,24.7551,VALID,183,VALID,1.50898,
2011-05-11, 01:21:04,VALID,1001.47,VALID,0,VALID,83.3383,VALID,0,VALID,24.7142,VALID,179,VALID,1.50312,
2011-05-11, 01:22:04,VALID,1001.44,VALID,0,VALID,84.0555,VALID,0,VALID,24.6946,VALID,193,VALID,1.49883,
2011-05-11, 01:23:04,VALID,1001.46,VALID,0,VALID,84.5515,VALID,0,VALID,24.6751,VALID,182,VALID,1.22461,
2011-05-11, 01:24:04,VALID,1001.44,VALID,0,VALID,84.3226,VALID,0,VALID,24.6361,VALID,179,VALID,1.32383,
2011-05-11, 01:25:04,VALID,1001.43,VALID,0,VALID,84.4904,VALID,0,VALID,24.6166,VALID,181,VALID,1.15937,
2011-05-11, 01:26:04,VALID,1001.44,VALID,0,VALID,84.8948,VALID,0,VALID,24.5971,VALID,162,VALID,1.22891,
2011-05-11, 01:27:04,VALID,1001.44,VALID,0,VALID,85.3907,VALID,0,VALID,24.558,VALID,161,VALID,1.24648,
2011-05-11, 01:28:04,VALID,1001.43,VALID,0,VALID,85.1008,VALID,0,VALID,24.4995,VALID,160,VALID,1.18516,
2011-05-11, 01:29:04,VALID,1001.43,VALID,0,VALID,85.1923,VALID,0,VALID,24.48,VALID,163,VALID,1.24766,
2011-05-11, 01:30:04,VALID,1001.41,VALID,0,VALID,85.5509,VALID,0,VALID,24.4604,VALID,161,VALID,0.736719,
2011-05-11, 01:31:04,VALID,1001.37,VALID,0,VALID,85.7722,VALID,0,VALID,24.4409,VALID,159,VALID,0.697266,
2011-05-11, 01:32:04,VALID,1001.36,VALID,0,VALID,85.9477,VALID,0,VALID,24.4214,VALID,159,VALID,1.03242,
2011-05-11, 01:33:04,VALID,1001.38,VALID,0,VALID,85.9553,VALID,0,VALID,24.3629,VALID,159,VALID,1.01289,
2011-05-11, 01:34:04,VALID,1001.35,VALID,0,VALID,85.8561,VALID,0,VALID,24.3842,VALID,159,VALID,1.0668,
2011-05-11, 01:35:04,VALID,1001.33,VALID,0,VALID,85.5357,VALID,0,VALID,24.3842,VALID,159,VALID,0.729297,
2011-05-11, 01:36:04,VALID,1001.31,VALID,0,VALID,85.7646,VALID,0,VALID,24.3433,VALID,158,VALID,0.871875,
2011-05-11, 01:37:04,VALID,1001.31,VALID,0,VALID,86.4436,VALID,0,VALID,24.3433,VALID,143,VALID,0.774609,
2011-05-11, 01:38:04,VALID,1001.3,VALID,0,VALID,86.764,VALID,0,VALID,24.3452,VALID,143,VALID,0.769141,
2011-05-11, 01:39:04,VALID,1001.31,VALID,0,VALID,86.9472,VALID,0,VALID,24.3043,VALID,133,VALID,0.819922,
2011-05-11, 01:40:04,VALID,1001.3,VALID,0,VALID,86.5046,VALID,0.112286,VALID,24.2848,VALID,132,VALID,0.786328,
2011-05-11, 01:41:04,VALID,1001.31,VALID,0,VALID,86.024,VALID,0.112286,VALID,24.2653,VALID,134,VALID,0.942187,
2011-05-11, 01:42:04,VALID,1001.29,VALID,0,VALID,86.1689,VALID,0,VALID,24.3062,VALID,133,VALID,0.706641,
2011-05-11, 01:43:04,VALID,1001.32,VALID,0,VALID,86.3063,VALID,0,VALID,24.2653,VALID,121,VALID,0.724219,
2011-05-11, 01:44:04,VALID,1001.29,VALID,0,VALID,86.7488,VALID,0,VALID,24.2848,VALID,121,VALID,0.543359,
2011-05-11, 01:45:04,VALID,1001.32,VALID,0,VALID,86.9548,VALID,0,VALID,24.2848,VALID,121,VALID,0.517187,
2011-05-11, 01:46:04,VALID,1001.35,VALID,0,VALID,87.3134,VALID,0,VALID,24.2653,VALID,121,VALID,0.404297,
2011-05-11, 01:47:04,VALID,1001.34,VALID,0,VALID,87.588,VALID,0,VALID,24.2653,VALID,99,VALID,0.657812,
2011-05-11, 01:48:04,VALID,1001.33,VALID,0,VALID,87.8169,VALID,0,VALID,24.2458,VALID,99,VALID,0.475781,
2011-05-11, 01:49:04,VALID,1001.33,VALID,0,VALID,87.939,VALID,0,VALID,24.2263,VALID,99,VALID,0.511719,
2011-05-11, 01:50:04,VALID,1001.33,VALID,0,VALID,88.0534,VALID,0,VALID,24.2086,VALID,99,VALID,0.0328125,
2011-05-11, 01:51:04,VALID,1001.29,VALID,0,VALID,88.0916,VALID,0,VALID,24.1872,VALID,99,VALID,0,
2011-05-11, 01:52:04,VALID,1001.29,VALID,0,VALID,88.1221,VALID,0,VALID,24.1677,VALID,99,VALID,0,
2011-05-11, 01:53:04,VALID,1001.28,VALID,0,VALID,88.206,VALID,0,VALID,24.1696,VALID,99,VALID,0,
2011-05-11, 01:54:04,VALID,1001.25,VALID,0,VALID,88.2671,VALID,0,VALID,24.1482,VALID,99,VALID,0,
2011-05-11, 01:55:04,VALID,1001.24,VALID,0,VALID,88.3129,VALID,0,VALID,24.1287,VALID,99,VALID,0,
2011-05-11, 01:56:04,VALID,1001.18,VALID,0,VALID,88.2137,VALID,0,VALID,24.1287,VALID,99,VALID,0,
2011-05-11, 01:57:04,VALID,1001.19,VALID,0,VALID,87.8932,VALID,0,VALID,24.1305,VALID,99,VALID,0,
2011-05-11, 01:58:04,VALID,1001.17,VALID,0,VALID,87.6796,VALID,0,VALID,24.1305,VALID,99,VALID,0,
2011-05-11, 01:59:04,VALID,1001.16,VALID,0,VALID,87.7483,VALID,0,VALID,24.1305,VALID,99,VALID,0.262891,
2011-05-11, 02:00:04,VALID,1001.15,VALID,0,VALID,87.7254,VALID,0,VALID,24.1305,VALID,99,VALID,0.140234,
2011-05-11, 02:01:04,VALID,1001.13,VALID,0,VALID,87.7788,VALID,0,VALID,24.1092,VALID,120,VALID,0.692187,
2011-05-11, 02:02:04,VALID,1001.1,VALID,0,VALID,87.527,VALID,0,VALID,24.1287,VALID,115,VALID,0.532031,
2011-05-11, 02:03:04,VALID,1001.08,VALID,0,VALID,87.5651,VALID,0,VALID,24.1287,VALID,115,VALID,0.599219,
2011-05-11, 02:04:04,VALID,1001.06,VALID,0,VALID,87.2523,VALID,0,VALID,24.1287,VALID,122,VALID,0.630469,
2011-05-11, 02:05:04,VALID,1001.07,VALID,0,VALID,87.054,VALID,0,VALID,24.1287,VALID,133,VALID,0.496094,
2011-05-11, 02:06:04,VALID,1000.99,VALID,0,VALID,86.6725,VALID,0,VALID,24.1482,VALID,133,VALID,0.442187,
2011-05-11, 02:07:04,VALID,1001.01,VALID,0,VALID,86.9166,VALID,0,VALID,24.1482,VALID,133,VALID,0.101953,
2011-05-11, 02:08:04,VALID,1000.99,VALID,0,VALID,86.7717,VALID,0,VALID,24.1482,VALID,133,VALID,0.324609,
2011-05-11, 02:09:04,VALID,1000.98,VALID,0,VALID,86.6649,VALID,0,VALID,24.1482,VALID,133,VALID,0.550781,
2011-05-11, 02:10:04,VALID,1001,VALID,0,VALID,86.7183,VALID,0,VALID,24.1696,VALID,133,VALID,0,
2011-05-11, 02:11:04,VALID,1000.93,VALID,0,VALID,86.7564,VALID,0,VALID,24.1482,VALID,133,VALID,0,
2011-05-11, 02:12:04,VALID,1000.95,VALID,0,VALID,86.9166,VALID,0,VALID,24.1696,VALID,133,VALID,0,
2011-05-11, 02:13:04,VALID,1000.94,VALID,0,VALID,86.7717,VALID,0,VALID,24.15,VALID,133,VALID,0,
2011-05-11, 02:14:04,VALID,1000.9,VALID,0,VALID,86.8174,VALID,0,VALID,24.1305,VALID,133,VALID,0,
2011-05-11, 02:15:04,VALID,1000.88,VALID,0,VALID,86.848,VALID,0,VALID,24.1305,VALID,133,VALID,0,
2011-05-11, 02:16:04,VALID,1000.88,VALID,0,VALID,87.0616,VALID,0,VALID,24.1305,VALID,133,VALID,0,
2011-05-11, 02:17:04,VALID,1000.88,VALID,0,VALID,87.2066,VALID,0,VALID,24.1305,VALID,133,VALID,0,
2011-05-11, 02:18:04,VALID,1000.86,VALID,0,VALID,87.1608,VALID,0,VALID,24.1305,VALID,133,VALID,0.379687,
2011-05-11, 02:19:04,VALID,1000.83,VALID,0,VALID,87.0997,VALID,0,VALID,24.1092,VALID,147,VALID,0.515234,
2011-05-11, 02:20:04,VALID,1000.85,VALID,0,VALID,87.1532,VALID,0,VALID,24.111,VALID,166,VALID,0.455469,
2011-05-11, 02:21:04,VALID,1000.81,VALID,0,VALID,87.1303,VALID,0,VALID,24.0897,VALID,166,VALID,0.393359,
2011-05-11, 02:22:04,VALID,1000.83,VALID,0,VALID,86.9548,VALID,0,VALID,24.0897,VALID,167,VALID,0.890625,
2011-05-11, 02:23:04,VALID,1000.82,VALID,0,VALID,86.6877,VALID,0,VALID,24.0915,VALID,150,VALID,0.817187,
2011-05-11, 02:24:04,VALID,1000.85,VALID,0,VALID,86.7411,VALID,0,VALID,24.1092,VALID,150,VALID,0.548437,
2011-05-11, 02:25:04,VALID,1000.85,VALID,0,VALID,86.9243,VALID,0,VALID,24.1305,VALID,150,VALID,0.350391,
2011-05-11, 02:26:04,VALID,1000.85,VALID,0,VALID,87.0387,VALID,0,VALID,24.1092,VALID,150,VALID,0.500781,
2011-05-11, 02:27:04,VALID,1000.83,VALID,0,VALID,87.1684,VALID,0,VALID,24.1305,VALID,150,VALID,0.040625,
2011-05-11, 02:28:04,VALID,1000.85,VALID,0,VALID,87.3363,VALID,0,VALID,24.0897,VALID,150,VALID,0,
2011-05-11, 02:29:04,VALID,1000.87,VALID,0,VALID,87.5117,VALID,0,VALID,24.0915,VALID,150,VALID,0,
2011-05-11, 02:30:04,VALID,1000.85,VALID,0,VALID,87.8703,VALID,0,VALID,24.0701,VALID,235,VALID,0.574219,
2011-05-11, 02:31:04,VALID,1000.86,VALID,0,VALID,88.0534,VALID,0,VALID,24.0701,VALID,235,VALID,0.411328,
2011-05-11, 02:32:04,VALID,1000.86,VALID,0,VALID,88.1145,VALID,0,VALID,24.0897,VALID,235,VALID,0.340234,
2011-05-11, 02:33:04,VALID,1000.86,VALID,0,VALID,88.1755,VALID,0,VALID,24.0897,VALID,235,VALID,0.321094,
2011-05-11, 02:34:04,VALID,1000.88,VALID,0,VALID,88.1526,VALID,0,VALID,24.0897,VALID,235,VALID,0.283984,
2011-05-11, 02:35:04,VALID,1000.87,VALID,0,VALID,88.084,VALID,0,VALID,24.0701,VALID,235,VALID,0.25625,
2011-05-11, 02:36:04,VALID,1000.9,VALID,0,VALID,88.0687,VALID,0,VALID,24.0915,VALID,235,VALID,0,
2011-05-11, 02:37:04,VALID,1000.9,VALID,0,VALID,87.8703,VALID,0,VALID,24.0915,VALID,235,VALID,0,
2011-05-11, 02:38:04,VALID,1000.95,VALID,0,VALID,87.7406,VALID,0,VALID,24.111,VALID,235,VALID,0,
2011-05-11, 02:39:04,VALID,1000.93,VALID,0,VALID,87.7406,VALID,0,VALID,24.0897,VALID,234,VALID,0,
2011-05-11, 02:40:04,VALID,1000.94,VALID,0,VALID,87.9543,VALID,0,VALID,24.111,VALID,234,VALID,0,
2011-05-11, 02:41:04,VALID,1000.94,VALID,0,VALID,88.1068,VALID,0.112286,VALID,24.0897,VALID,234,VALID,0,
2011-05-11, 02:42:04,VALID,1000.95,VALID,0,VALID,88.2671,VALID,0.112286,VALID,24.0897,VALID,235,VALID,0,
2011-05-11, 02:43:04,VALID,1000.95,VALID,0,VALID,88.4731,VALID,0,VALID,24.0915,VALID,235,VALID,0,
2011-05-11, 02:44:04,VALID,1000.95,VALID,0,VALID,88.6486,VALID,0,VALID,24.0915,VALID,270,VALID,0,
2011-05-11, 02:45:04,VALID,1000.94,VALID,0,VALID,88.8317,VALID,0,VALID,24.0506,VALID,270,VALID,0.620703,
2011-05-11, 02:46:04,VALID,1000.93,VALID,0,VALID,88.9385,VALID,0,VALID,24.0525,VALID,270,VALID,0,
2011-05-11, 02:47:04,VALID,1000.97,VALID,0,VALID,89.0529,VALID,0,VALID,24.0525,VALID,270,VALID,0,
2011-05-11, 02:48:04,VALID,1000.99,VALID,0,VALID,89.2208,VALID,0,VALID,24.0329,VALID,277,VALID,0,
2011-05-11, 02:49:04,VALID,1000.98,VALID,0,VALID,89.3428,VALID,0,VALID,24.0134,VALID,287,VALID,0,
2011-05-11, 02:50:04,VALID,1000.99,VALID,0,VALID,89.4115,VALID,0,VALID,23.9939,VALID,294,VALID,0.866016,
2011-05-11, 02:51:04,VALID,1001,VALID,0,VALID,89.6099,VALID,0,VALID,23.9939,VALID,308,VALID,0.824219,
2011-05-11, 02:52:04,VALID,1001.01,VALID,0,VALID,89.7396,VALID,0,VALID,23.9939,VALID,316,VALID,0.579297,
2011-05-11, 02:53:04,VALID,1001,VALID,0,VALID,89.8235,VALID,0,VALID,23.9744,VALID,316,VALID,0.344531,
2011-05-11, 02:54:04,VALID,1001,VALID,0,VALID,89.8769,VALID,0,VALID,23.9549,VALID,316,VALID,0.23125,
2011-05-11, 02:55:04,VALID,1001.01,VALID,0,VALID,89.8464,VALID,0,VALID,23.9354,VALID,316,VALID,0,
2011-05-11, 02:56:04,VALID,1000.98,VALID,0,VALID,89.854,VALID,0,VALID,23.914,VALID,316,VALID,0,
2011-05-11, 02:57:04,VALID,1001.03,VALID,0,VALID,89.8998,VALID,0,VALID,23.9159,VALID,316,VALID,0,
2011-05-11, 02:58:04,VALID,1001.01,VALID,0,VALID,89.9227,VALID,0,VALID,23.9159,VALID,316,VALID,0,
2011-05-11, 02:59:04,VALID,1001.01,VALID,0,VALID,89.9609,VALID,0,VALID,23.875,VALID,316,VALID,0,
2011-05-11, 03:00:04,VALID,1000.97,VALID,0,VALID,90.0371,VALID,0,VALID,23.875,VALID,316,VALID,0,
2011-05-11, 03:01:04,VALID,1000.99,VALID,0,VALID,90.0829,VALID,0,VALID,23.8963,VALID,316,VALID,0,
2011-05-11, 03:02:04,VALID,1000.97,VALID,0,VALID,90.1363,VALID,0,VALID,23.875,VALID,316,VALID,0,
2011-05-11, 03:03:04,VALID,1000.98,VALID,0,VALID,90.2126,VALID,0,VALID,23.875,VALID,316,VALID,0,
2011-05-11, 03:04:04,VALID,1000.97,VALID,0,VALID,90.2508,VALID,0,VALID,23.8555,VALID,316,VALID,0,
2011-05-11, 03:05:04,VALID,1000.96,VALID,0,VALID,90.1668,VALID,0,VALID,23.836,VALID,316,VALID,0,
2011-05-11, 03:06:04,VALID,1000.96,VALID,0,VALID,90.1211,VALID,0,VALID,23.8183,VALID,316,VALID,0,
2011-05-11, 03:07:04,VALID,1000.97,VALID,0,VALID,90.0906,VALID,0,VALID,23.8183,VALID,316,VALID,0,
2011-05-11, 03:08:04,VALID,1000.94,VALID,0,VALID,90.2126,VALID,0,VALID,23.8183,VALID,316,VALID,0,
2011-05-11, 03:09:04,VALID,1000.94,VALID,0,VALID,90.2279,VALID,0,VALID,23.8183,VALID,316,VALID,0,
2011-05-11, 03:10:04,VALID,1000.97,VALID,0,VALID,90.1897,VALID,0,VALID,23.797,VALID,317,VALID,0,
2011-05-11, 03:11:04,VALID,1000.91,VALID,0,VALID,90.0677,VALID,0.112286,VALID,23.797,VALID,317,VALID,0,
2011-05-11, 03:12:04,VALID,1000.92,VALID,0,VALID,90.0143,VALID,0,VALID,23.8183,VALID,317,VALID,0,
2011-05-11, 03:13:04,VALID,1000.92,VALID,0,VALID,90.0295,VALID,0,VALID,23.8378,VALID,317,VALID,0,
2011-05-11, 03:14:04,VALID,1000.94,VALID,0,VALID,90.1897,VALID,0,VALID,23.8378,VALID,317,VALID,0,
2011-05-11, 03:15:04,VALID,1000.9,VALID,0,VALID,90.3423,VALID,0,VALID,23.8183,VALID,317,VALID,0,
2011-05-11, 03:16:04,VALID,1000.91,VALID,0,VALID,90.4491,VALID,0,VALID,23.797,VALID,317,VALID,0,
2011-05-11, 03:17:04,VALID,1000.92,VALID,0,VALID,90.472,VALID,0,VALID,23.797,VALID,9,VALID,0,
2011-05-11, 03:18:04,VALID,1000.89,VALID,0,VALID,90.5026,VALID,0,VALID,23.797,VALID,66,VALID,0,
2011-05-11, 03:19:04,VALID,1000.9,VALID,0,VALID,90.4873,VALID,0,VALID,23.8183,VALID,80,VALID,1.0043,
2011-05-11, 03:20:04,VALID,1000.87,VALID,0,VALID,90.5178,VALID,0,VALID,23.797,VALID,80,VALID,1.17617,
2011-05-11, 03:21:04,VALID,1000.89,VALID,0,VALID,90.5788,VALID,0,VALID,23.8183,VALID,81,VALID,0.890625,
2011-05-11, 03:22:04,VALID,1000.83,VALID,0,VALID,90.6246,VALID,0,VALID,23.8378,VALID,82,VALID,0.535547,
2011-05-11, 03:23:04,VALID,1000.85,VALID,0,VALID,90.5865,VALID,0,VALID,23.7775,VALID,82,VALID,0.273438,
2011-05-11, 03:24:04,VALID,1000.82,VALID,0,VALID,90.556,VALID,0,VALID,23.7988,VALID,82,VALID,0.377344,
2011-05-11, 03:25:04,VALID,1000.84,VALID,0,VALID,90.5712,VALID,0,VALID,23.7988,VALID,82,VALID,0.435547,
2011-05-11, 03:26:04,VALID,1000.85,VALID,0,VALID,90.617,VALID,0,VALID,23.7775,VALID,82,VALID,0.491406,
2011-05-11, 03:27:04,VALID,1000.83,VALID,0,VALID,90.6475,VALID,0,VALID,23.7988,VALID,82,VALID,0.398438,
2011-05-11, 03:28:04,VALID,1000.82,VALID,0,VALID,90.6399,VALID,0,VALID,23.7793,VALID,82,VALID,0.701953,
2011-05-11, 03:29:04,VALID,1000.84,VALID,0,VALID,90.5407,VALID,0.112286,VALID,23.7579,VALID,92,VALID,0.758984,
2011-05-11, 03:30:04,VALID,1000.84,VALID,0,VALID,90.3881,VALID,0.112286,VALID,23.7579,VALID,113,VALID,0.976172,
2011-05-11, 03:31:04,VALID,1000.84,VALID,0,VALID,90.3194,VALID,0,VALID,23.7793,VALID,124,VALID,0.940234,
2011-05-11, 03:32:04,VALID,1000.87,VALID,0,VALID,90.2813,VALID,0,VALID,23.7597,VALID,124,VALID,0.691016,
2011-05-11, 03:33:04,VALID,1000.87,VALID,0,VALID,90.3118,VALID,0,VALID,23.7597,VALID,124,VALID,0.825781,
2011-05-11, 03:34:04,VALID,1000.88,VALID,0,VALID,90.3881,VALID,0,VALID,23.7597,VALID,124,VALID,0.682422,
2011-05-11, 03:35:04,VALID,1000.88,VALID,0,VALID,90.411,VALID,0,VALID,23.7402,VALID,124,VALID,0.555859,
2011-05-11, 03:36:04,VALID,1000.86,VALID,0,VALID,90.4415,VALID,0,VALID,23.6994,VALID,124,VALID,0.377734,
2011-05-11, 03:37:04,VALID,1000.87,VALID,0,VALID,90.4339,VALID,0,VALID,23.7012,VALID,124,VALID,0,
2011-05-11, 03:38:04,VALID,1000.85,VALID,0,VALID,90.3957,VALID,0,VALID,23.7012,VALID,124,VALID,0,
2011-05-11, 03:39:04,VALID,1000.83,VALID,0,VALID,90.266,VALID,0,VALID,23.6604,VALID,124,VALID,0,
2011-05-11, 03:40:04,VALID,1000.86,VALID,0,VALID,90.0066,VALID,0,VALID,23.6817,VALID,124,VALID,0,
2011-05-11, 03:41:04,VALID,1000.83,VALID,0,VALID,89.7777,VALID,0,VALID,23.6817,VALID,124,VALID,0,
2011-05-11, 03:42:04,VALID,1000.85,VALID,0,VALID,89.6557,VALID,0,VALID,23.7012,VALID,124,VALID,0,
2011-05-11, 03:43:04,VALID,1000.82,VALID,0,VALID,89.6251,VALID,0,VALID,23.7012,VALID,124,VALID,0,
2011-05-11, 03:44:04,VALID,1000.81,VALID,0,VALID,89.5565,VALID,0,VALID,23.6799,VALID,124,VALID,0,
2011-05-11, 03:45:04,VALID,1000.82,VALID,0,VALID,89.4802,VALID,0,VALID,23.6817,VALID,124,VALID,0,
2011-05-11, 03:46:04,VALID,1000.79,VALID,0,VALID,89.5336,VALID,0,VALID,23.6604,VALID,124,VALID,0,
2011-05-11, 03:47:04,VALID,1000.77,VALID,0,VALID,89.5183,VALID,0,VALID,23.6409,VALID,124,VALID,0,
2011-05-11, 03:48:04,VALID,1000.77,VALID,0,VALID,89.4497,VALID,0,VALID,23.6817,VALID,124,VALID,0,
2011-05-11, 03:49:04,VALID,1000.77,VALID,0,VALID,89.3505,VALID,0,VALID,23.6799,VALID,131,VALID,0,
2011-05-11, 03:50:04,VALID,1000.78,VALID,0,VALID,89.3505,VALID,0,VALID,23.7012,VALID,150,VALID,0,
2011-05-11, 03:51:04,VALID,1000.8,VALID,0,VALID,89.2742,VALID,0,VALID,23.7207,VALID,150,VALID,0,